Regional Weather Roundup
Issued by NWS Charleston, SC

Current Version | Previous Version | Graphics & Text | Print | Product List | Glossary On
Versions: 1 2 3 4 5 6 7 8 9 10 11 12 13 14 15 16 17 18 19 20 21 22 23 24 25 26 27 28 29 30 31 32 33 34 35 36 37 38 39 40 41 42 43 44 45 46 47 48 49 50
000
ASUS42 KCHS 131528
RWRCHS

REGIONAL WEATHER ROUNDUP
NATIONAL WEATHER SERVICE CHARLESTON SC
1000 AM EST SAT FEB 13 2016

NOTE: "FAIR" INDICATES FEW OR NO CLOUDS BELOW 12,000 FEET WITH NO
SIGNIFICANT WEATHER AND/OR OBSTRUCTIONS TO VISIBILITY.

NOT ALL STATIONS ARE QUALITY CONTROLLED BY THE NATIONAL
WEATHER SERVICE. USE DATA WITH CAUTION...ESPECIALLY
DEWPOINT OBSERVATIONS.

SCZ027-030-031-034>040-042>050-131600-
...SOUTHEAST SOUTH CAROLINA...

CITY           SKY/WX    TMP DP  RH WIND       PRES   REMARKS
N CHARLESTON   SUNNY     45  26  47 N9        30.28R
WATERFRONT PRK   N/A     42  31  64 N9        30.12R
MOUNT PLEASANT FAIR      43  25  49 NW12      30.28S
JOHNS ISLAND   FAIR      45  28  53 N9        30.28S
PINOPOLIS        N/A     39  27  60 N9        30.21R WCI  33
MONCKS CORNER  FAIR      39  18  41 N8        30.29R WCI  34
SUMMERVILLE    FAIR      43  28  56 N9        30.30R
BEAUFORT MCAS  SUNNY     45  28  51 N16       30.29R
BEAUFORT ARPT  FAIR      45  30  57 N9G20     30.29S HAZE
HILTON HEAD IS SUNNY     45  30  57 N14G25    30.30R
WALTERBORO     SUNNY     45  25  45 N10       30.30F
ALLENDALE      FAIR      43  27  52 VRB6G15   30.30R

...SOUTHERN MIDLANDS AND PEE DEE...

CITY           SKY/WX    TMP DP  RH WIND       PRES   REMARKS
GEORGETOWN     FAIR      41  23  48 N8        30.28R
KINGSTREE      FAIR      37  19  48 N9        30.29R WCI  31
ORANGEBURG     SUNNY     41  19  41 N9        30.30R
BARNWELL       FAIR      43  27  52 N7        30.31R
AIKEN          FAIR      37  21  52 NW7       30.33R WCI  32
MANNING        FAIR      41  -4  15 N16       30.29R
COLUMBIA       MOSUNNY   40  14  34 VRB7      30.30R WCI  35
SUMTER         SUNNY     39  17  41 N12       30.27R WCI  31
FLORENCE       SUNNY     37  17  44 N15       30.28R WCI  28
MYRTLE BEACH   SUNNY     39  21  48 N17       30.29R WCI  30
N MYRTLE BEACH SUNNY     39  19  44 N10G21    30.26R WCI  32

$$

GAZ063-065-086>088-099>101-113>116-118-119-134>141-150-131600-
...SOUTHEAST GEORGIA...

CITY           SKY/WX    TMP DP  RH WIND       PRES   REMARKS
SAVANNAH ARPT  MOSUNNY   46  27  47 NW15      30.30R
HUNTER AAF     MOSUNNY   46  28  48 NW13      30.27R
FORT STEWART   SUNNY     47  25  42 N9        30.28R
STATESBORO     SUNNY     46  20  35 NW12      30.31R
SYLVANIA       SUNNY     44  30  57 NW10G17   30.32R
CLAXTON        FAIR      45  27  49 NW8       30.32R

...CSRA...CENTRAL AND FAR SOUTHEAST GEORGIA...

CITY           SKY/WX    TMP DP  RH WIND       PRES   REMARKS
THOMSON        SUNNY     41  22  46 W8        30.35S
AUGUSTA-BUSH   SUNNY     41  19  41 NW12      30.32R
AUGUSTA-DANIEL SUNNY     41  18  39 NW12G17   30.31R
SWAINSBORO     FAIR      43  21  42 NW10G16   30.32S
VIDALIA        SUNNY     45  23  42 NW12      30.32R
EASTMAN        FAIR      44  19  37 NW8       30.37S
HAZLEHURST     FAIR      46  23  40 NW10G16   30.32S
ALMA           SUNNY     46  24  42 NW14      30.32R
WAYCROSS       SUNNY     52  29  41 N12       30.32S
JESUP          FAIR      50  27  40 N9G17     30.31S
BAXLEY         FAIR      46  25  42 NW13G21   30.32R
BRUNSWICK      SUNNY     52  27  37 N7        30.30R
SAINT SIMONS   SUNNY     49  29  46 NW9       30.29R

$$

SCZ027-028-034-036>038-045-046-048>050-GAZ119-141-131600-
...LAKE AND SUPPLEMENTAL COASTAL OBSERVATIONS...

STATION/POSITION TIME  TEMP    WIND        PRES    WAVE   SWELL
                       AIR SEA DIR/SP/G            HT/PER HT/PER/DIR
                 (UTC) (F)     (DEG/KT/KT) (MB)    (FT/S) (FT/S/D)
WINYAH BAY       1400   39     360/  6     1023.0
LAKE MURRAY      1400   35     350/  6/ 13 1024.7R
ACE BASIN NERRS  1445   43     350/  5     1025.0R
FORT PULASKI     1500   44 50  320/ 13/ 16 1025.8R
SAPELO ISLAND    1500   48     330/ 11     1025.0S

$$

ANZ835-935-AMZ111-154-330-350-352-354-370-450-454-472-131600-
...C-MAN AND BUOY OBSERVATIONS...

STATION/POSITION TIME  TEMP    WIND        PRES    WAVE   SWELL
                       AIR SEA DIR/SP/G            HT/PER HT/PER/DIR
                 (UTC) (F)     (DEG/KT/KT) (MB)    (FT/S) (FT/S/D)
BUOY 41004       1450   46 67  360/ 17/ 23 1023.7R   5/ 5   2/ 9
BUOY 41008       1450   45 53  350/ 16/ 17 1025.4R   3/ 5
FOLLY BEACH CMAN 1500   43     350/  9/ 12 1025.3R
CAPERS NEARSHORE 1408   40      10/ 14/ 17 1024.4R
FRIPP NEARSHORE  1400   44     360/ 17/ 21 1024.0R


STATION/POSITION TIME  TEMP    WIND        PRES    WAVE   SWELL
                       AIR SEA DIR/SP/G            HT/PER HT/PER/DIR
                 (UTC) (F)     (DEG/KT/KT) (MB)    (FT/S) (FT/S/D)
5E ST. MARYS GA  1421      56                N/A     3/ 4
FRYING PAN BUOY  1500   42 61   10/ 19/ 25 1024.0R
BUOY 41025       1450   38 71  340/ 19/ 25 1021.9R   6/ 8   2/120/11
CAPE LOOKOUT NC  NOT AVBL
BUOY 41002       1450   59 68  310/ 21/ 27   N/A    10/ 7
BUOY 41010       1420   69 72              1021.5R
ST AUGUSTINE FL  1500   53 57  360/ 15/ 18 1025.9R


$$




USA.gov is the U.S. government's official web portal to all federal, state and local government web resources and services.